Flag for Belgium Weather past 2 weeks in Ghent, Belgium

Now
67 °F

Mild.


Feels Like: 67 °F
Forecast: 46 / 78 °F
Wind: 5 mph from Southwest

Location: Munte

Current Time: Aug 28, 2015 at 2:50:18 PM

Latest Report: Aug 28, 2015 at 2:00 PM


Visibility: 13 mi

Pressure: 30.09 "Hg

Humidity: 65%

Dew point: 55 °F

Location of GhentLocation

Historic Weather in Ghent — Graph

°F

Ghent temperature yesterday

Maximum temperature yesterday: 66 °F (at 1:00 AM)
Minimum temperature yesterday: 56 °F (at 11:00 PM)
Average temperature yesterday: 60 °F

Past Weeks' High & Low Weather Summary

 TemperatureHumidityPressure
High87 °F (Aug 13, 4:00 PM)100% (Aug 13, 8:00 PM)30.23 "Hg (Aug 13, 8:00 PM)
Low54 °F (Aug 28, 5:00 AM)37% (Aug 22, 2:00 PM)29.41 "Hg (Aug 24, 6:00 PM)
Average65 °F76%29.92 "Hg
* Reported Aug 13 1:00 PM — Aug 28 1:00 PM, Ghent, Weather by CustomWeather, © 2015

Note: Actual official high and low records may vary slightly from our data, if they occured in-between our weather recording intervals... More about our weather records

Advertising

Ghent weather history for previous 24 hours

 ConditionsComfort  
Time TempWeatherWind HumidityBarometerVisibility
1:00 PM
Fri, Aug 28
65 °FMild.3 mph68%30.08 "Hg12 mi
12:00 PM63 °FMild.3 mph77%30.07 "Hg10 mi
11:00 AM59 °FCool.2 mph86%30.06 "Hg10 mi
10:00 AM57 °FCool.3 mph94%30.05 "Hg5 mi
9:00 AM55 °FCool.3 mph98%30.03 "Hg3 mi
8:00 AM55 °FCool.3 mph98%30.01 "Hg3 mi
7:00 AM54 °FFog.3 mph98%29.99 "Hg3 mi
5:00 AM54 °FCool.3 mph96%29.96 "Hg9 mi
4:00 AM55 °FCool.3 mph95%29.95 "Hg11 mi
3:00 AM56 °FCool.3 mph95%29.93 "Hg12 mi
2:00 AM56 °FCool.3 mph96%29.92 "Hg10 mi
1:00 AM56 °FCool.3 mph96%29.92 "Hg10 mi
11:00 PM
Thu, Aug 27
56 °FCool.3 mph95%29.90 "Hg12 mi
10:00 PM57 °FCool.3 mph94%29.88 "Hg12 mi
9:00 PM57 °FCool.3 mph95%29.87 "Hg12 mi
8:00 PM58 °FLight rain. Cloudy.3 mph95%29.86 "Hg12 mi
7:00 PM58 °FLight rain. Cloudy.3 mph96%29.85 "Hg12 mi
6:00 PM59 °FCool.3 mph93%29.86 "Hg12 mi
5:00 PM58 °FCool.3 mph97%29.85 "Hg12 mi
4:00 PM59 °FCool.5 mph93%29.86 "Hg12 mi
3:00 PM59 °FLight rain. Cloudy.7 mph95%29.85 "Hg9 mi
2:00 PM58 °FLight rain. Cloudy.6 mph96%29.85 "Hg6 mi
Weather by CustomWeather, © 2015

See weather overviewHow to use our weather pages